User: anonymous   Login
Location: G�ppingen
(48.7089°N, 9.6563°E)
Time: 04:37:23
(UTC+02:00)
Language:

KKS-1 - Orbit

View from above orbital plane
View from above orbital plane
View from above satellite
View from above satellite

Ground track
Ground track

The orbit data is extracted from the following two-line orbital elements,

1 33499U 09002H   19293.50734586  .00000100  00000-0  22720-4 0  9999
2 33499  98.3403 136.1186 0009346 164.9941 195.1546 14.75470724577482
Epoch (UTC): 20 October 2019 12:10:34
Eccentricity: 0.0009346
inclination: 98.3403°
perigee height: 637 km
apogee height: 650 km
right ascension of ascending node: 136.1186°
argument of perigee: 164.9941°
revolutions per day: 14.75470724
mean anomaly at epoch: 195.1546°
orbit number at epoch: 57748

The dashed part of the orbit path shows where the satellite is in the earth's shadow,  

DLR